Chapel Hill, NC

7:37 PM EST on February 18, 2018 (GMT -0500)
Williams

Weather History for KIGX - April, 2014

Change the Weather History Date:

Sunday, April 13, 2014

  Actual Average Record
Temperature  
Mean Temperature 68 °F -  
Max Temperature 82 °F 71 °F 88 °F (1977)
Min Temperature 57 °F 44 °F 28 °F (1975)
Cooling Degree Days 4    
Growing Degree Days 18 (Base 50)    
Moisture  
Dew Point 54 °F    
Average Humidity 56    
Maximum Humidity 81    
Minimum Humidity 40    
Precipitation  
Precipitation 0.00 in - - ()
Sea Level Pressure  
Sea Level Pressure 30.14 in    
Wind  
Wind Speed 4 mph (SSE)    
Max Wind Speed 10 mph    
Max Gust Speed -    
Visibility 10 miles    
Events      
Averages and records for this station are not official NWS values.
T = Trace of Precipitation, MM = Missing Value Source: NWS Daily Summary

Daily Weather History Graph

Daily Weather History Graph

Search for Another Location

Airport or City:

Trip Planner

Search our weather history database for the weather conditions in past years. The results will help you decide how hot, cold, wet, or windy it might be!

Date:

Astronomy

Apr. 13, 2014 Rise Set
Actual Time 6:45 AM EDT 7:48 PM EDT
Civil Twilight 6:19 AM EDT 8:14 PM EDT
Nautical Twilight 5:48 AM EDT 8:45 PM EDT
Astronomical Twilight 5:16 AM EDT 9:18 PM EDT
Moon 6:26 PM EDT (4/13) 5:40 AM EDT (4/13)
Length of Visible Light 13h 54m
Length of Day
13h 02m
Waxing Gibbous, 97% of the Moon is Illuminated
Apr 13
Waxing Gibbous
Apr 15
Full
Apr 22
Last Quarter
Apr 29
New
May 6
First Quarter

Hourly Weather History & Observations

Time (EDT) Temp. Heat Index Dew Point Humidity Pressure Visibility Wind Dir Wind Speed Gust Speed Precip Events Conditions
12:56 AM 64.9 °F - 51.1 °F 61% 30.16 in 10.0 mi Variable 4.6 mph - N/A   Clear
1:56 AM 63.0 °F - 50.0 °F 63% 30.16 in 10.0 mi Calm Calm - N/A   Clear
2:56 AM 61.0 °F - 50.0 °F 67% 30.15 in 10.0 mi Calm Calm - N/A   Clear
3:56 AM 60.1 °F - 51.1 °F 72% 30.15 in 10.0 mi Calm Calm - N/A   Clear
4:56 AM 60.1 °F - 51.1 °F 72% 30.15 in 10.0 mi Variable 3.5 mph - N/A   Clear
5:56 AM 57.9 °F - 51.1 °F 78% 30.16 in 10.0 mi Calm Calm - N/A   Clear
6:56 AM 57.0 °F - 51.1 °F 81% 30.18 in 10.0 mi Calm Calm - N/A   Clear
8:56 AM 66.0 °F - 55.9 °F 70% 30.22 in 10.0 mi North - - N/A   Clear
9:56 AM 70.0 °F - 57.0 °F 63% 30.20 in 10.0 mi Variable 5.8 mph - N/A   Clear
10:18 AM 71.1 °F - 55.9 °F 59% 30.21 in 7.0 mi Variable 3.5 mph - N/A   Mostly Cloudy
10:37 AM 73.0 °F - 57.0 °F 57% 30.22 in 10.0 mi Variable 4.6 mph - N/A   Scattered Clouds
10:56 AM 72.0 °F - 55.9 °F 57% 30.20 in 9.0 mi Variable 6.9 mph - N/A   Mostly Cloudy
11:21 AM 73.9 °F - 57.0 °F 55% 30.21 in 10.0 mi Variable 4.6 mph - N/A   Mostly Cloudy
11:56 AM 75.0 °F - 57.0 °F 53% 30.18 in 10.0 mi North - - N/A   Mostly Cloudy
12:56 PM 77.0 °F - 55.0 °F 47% 30.16 in 10.0 mi SE 8.1 mph - N/A   Clear
1:56 PM 79.0 °F - 55.0 °F 44% 30.15 in 10.0 mi South 10.4 mph - N/A   Partly Cloudy
2:56 PM 79.0 °F - 55.0 °F 44% 30.12 in 10.0 mi Variable 6.9 mph - N/A   Scattered Clouds
3:56 PM 80.1 °F 80.1 °F 55.0 °F 42% 30.09 in 10.0 mi SSE 9.2 mph - N/A   Partly Cloudy
4:56 PM 80.1 °F 80.1 °F 55.0 °F 42% 30.08 in 10.0 mi South 8.1 mph - N/A   Mostly Cloudy
5:56 PM 80.1 °F 80.0 °F 54.0 °F 40% 30.07 in 10.0 mi North - - N/A   Mostly Cloudy
6:56 PM 78.1 °F - 53.1 °F 42% 30.07 in 10.0 mi Variable 6.9 mph - N/A   Clear
7:56 PM 75.9 °F - 53.1 °F 45% 30.07 in 10.0 mi Variable 4.6 mph - N/A   Clear
8:56 PM 73.0 °F - 54.0 °F 51% 30.09 in 10.0 mi Variable 4.6 mph - N/A   Clear
9:56 PM 71.1 °F - 53.1 °F 53% 30.09 in 10.0 mi Variable 4.6 mph - N/A   Clear
10:56 PM 69.1 °F - 50.0 °F 51% 30.10 in 10.0 mi Variable 5.8 mph - N/A   Clear
11:56 PM 66.9 °F - 52.0 °F 59% 30.10 in 10.0 mi SSE 8.1 mph - N/A   Clear